Holland, MI

8:27 AM EDT on May 27, 2017 (GMT -0400)
Tulip City

Weather History for KBIV - August, 2013

Change the Weather History Date:

Thursday, August 8, 2013

  Actual Average Record
Temperature  
Mean Temperature 72 °F 72 °F  
Max Temperature 82 °F 82 °F 92 °F (1988)
Min Temperature 62 °F 63 °F 45 °F (1971)
Degree Days  
Heating Degree Days 0 0  
Month to date heating degree days 2 0  
Since 1 June heating degree days 44 54  
Since 1 July heating degree days 10 6  
Cooling Degree Days 7 7  
Month to date cooling degree days 34 56  
Year to date cooling degree days 559 479  
Since 1 June cooling degree days 469 437  
Growing Degree Days 22 (Base 50)    
Moisture  
Dew Point 56 °F    
Average Humidity 62    
Maximum Humidity 87    
Minimum Humidity 36    
Precipitation  
Precipitation 0.00 in 0.11 in 1.00 in (1992)
Month to date precipitation 0.46 0.77  
Year to date precipitation 26.65 20.41  
Sea Level Pressure  
Sea Level Pressure 30.00 in    
Wind  
Wind Speed 4 mph (NNE)    
Max Wind Speed 12 mph    
Max Gust Speed 16 mph    
Visibility 10 miles    
Events      
T = Trace of Precipitation, MM = Missing Value Source: NWS Daily Summary

Daily Weather History Graph

Daily Weather History Graph

Search for Another Location

Airport or City:

Trip Planner

Search our weather history database for the weather conditions in past years. The results will help you decide how hot, cold, wet, or windy it might be!

Date:

Astronomy

Aug. 08, 2013 Rise Set
Actual Time 6:43 AM EDT 8:55 PM EDT
Civil Twilight 6:12 AM EDT 9:26 PM EDT
Nautical Twilight 5:33 AM EDT 10:05 PM EDT
Astronomical Twilight 4:51 AM EDT 10:47 PM EDT
Moon 8:33 AM EDT (8/8) 9:29 PM EDT (8/8)
Length of Visible Light 15h 14m
Length of Day
14h 12m
Waxing Crescent, 3% of the Moon is Illuminated
Aug 8
Waxing Crescent
Aug 14
First Quarter
Aug 20
Full
Aug 28
Last Quarter
Sep 5
New

Hourly Weather History & Observations

Time (EDT) Temp. Dew Point Humidity Pressure Visibility Wind Dir Wind Speed Gust Speed Precip Events Conditions
12:53 AM 68.0 °F 62.1 °F 81% 29.96 in 10.0 mi North 4.6 mph - N/A   Clear
1:53 AM 66.9 °F 61.0 °F 81% 29.97 in 10.0 mi Calm Calm - N/A   Clear
2:53 AM 64.9 °F 60.1 °F 84% 29.98 in 10.0 mi NNE 3.5 mph - N/A   Clear
3:53 AM 64.9 °F 59.0 °F 81% 29.99 in 10.0 mi NNE 3.5 mph - N/A   Clear
4:53 AM 64.0 °F 59.0 °F 84% 29.99 in 10.0 mi NNE 4.6 mph - N/A   Clear
5:53 AM 63.0 °F 57.9 °F 84% 30.00 in 10.0 mi North 3.5 mph - N/A   Clear
6:53 AM 62.1 °F 57.0 °F 84% 30.00 in 10.0 mi NNE 4.6 mph - N/A   Clear
7:53 AM 63.0 °F 57.0 °F 81% 30.01 in 10.0 mi Calm Calm - N/A   Clear
8:53 AM 64.9 °F 55.0 °F 70% 30.02 in 10.0 mi ENE 5.8 mph - N/A   Clear
9:53 AM 66.9 °F 55.9 °F 68% 30.04 in 10.0 mi ENE 8.1 mph - N/A   Clear
10:53 AM 70.0 °F 55.9 °F 61% 30.05 in 10.0 mi Variable 5.8 mph - N/A   Clear
11:53 AM 73.0 °F 54.0 °F 51% 30.03 in 10.0 mi East 6.9 mph - N/A   Clear
12:53 PM 75.0 °F 53.1 °F 46% 30.04 in 10.0 mi NE 5.8 mph - N/A   Clear
1:53 PM 77.0 °F 50.0 °F 39% 30.03 in 10.0 mi East 5.8 mph - N/A   Clear
2:53 PM 79.0 °F 53.1 °F 40% 30.01 in 10.0 mi ESE 5.8 mph - N/A   Clear
3:53 PM 79.0 °F 53.1 °F 40% 30.00 in 10.0 mi SE 6.9 mph - N/A   Clear
4:53 PM 81.0 °F 52.0 °F 36% 29.98 in 10.0 mi Variable 4.6 mph - N/A   Clear
5:53 PM 77.0 °F 55.9 °F 48% 29.99 in 10.0 mi West 9.2 mph 16.1 mph N/A   Clear
6:53 PM 75.9 °F 55.9 °F 50% 29.99 in 10.0 mi NW 5.8 mph - N/A   Clear
7:53 PM 73.9 °F 57.0 °F 55% 29.99 in 10.0 mi NW 3.5 mph - N/A   Clear
8:53 PM 68.0 °F 57.9 °F 70% 30.00 in 10.0 mi NW 4.6 mph - N/A   Clear
9:53 PM 68.0 °F 57.0 °F 68% 30.00 in 10.0 mi Calm Calm - N/A   Clear
10:53 PM 69.1 °F 55.9 °F 63% 30.00 in 10.0 mi North 3.5 mph - N/A   Clear
11:53 PM 68.0 °F 54.0 °F 61% 30.00 in 10.0 mi North 3.5 mph - N/A   Clear